Location: Campillo
(40.8621°N, 4.2488°W)
Time: 14:44:28
(UTC+00:00)

Cosmos 1777 Rocket - Pass Details

Date: 02 October 2021
Orbit: 759 x 775 km, 74.0° (Epoch: 23 October)

Event Time Altitude Azimuth Distance (km) Brightness Sun altitude
Rises 04:19:46 0° 339° (NNW) 3,226 7.2 -22.3°
Reaches altitude 10° 04:22:08 10° 339° (NNW) 2,297 6.4 -21.9°
Maximum altitude 04:27:21 84° 253° (WSW) 769 3.8 -21.0°
Drops below altitude 10° 04:32:33 10° 165° (SSE) 2,285 6.5 -20.0°
Sets 04:34:54 0° 165° (SSE) 3,209 7.3 -19.6°
